sat.trackr.live / text

‹ back to catalog

LEMUR-2-AHMED-ASRAR

NORAD 60576 · 2024-149DN

PAYLOAD ACTIVE UNKNOWN

§ Identity

Operator
Country
US
Launch date
2024-08-16
Launch site
AFWTR
Launch vehicle
Mass (kg)
RCS (m²)

Purposes: earth_obs

External: N2YO · Heavens-Above · Gunter

§ Orbital elements

Epoch: 2026-09-19T00:49:35.685984Z

Period
95.08 min
Inclination
97.6962°
Eccentricity
0.0002787
Mean motion
15.14508857 rev/d
Perigee alt
520.5 km
Apogee alt
524.4 km
Semi-major
6,900.6 km
B*
4.2358e-4
RAAN
348.0078°
Arg perigee
62.6702°
Mean anomaly
297.4813°
Rev number
11,476

§ Raw data

LEMUR-2-AHMED-ASRAR1 60576U 24149DN  26262.03444081  .00007735  00000+0  42358-3 0  99922 60576  97.6962 348.0078 0002787  62.6702 297.4813 15.14508857114769

JSON: /api/v1/satellites/60576 · /tle

For live sub-satellite position, see the globe view (requires WebGL).

§ Visibility from observer

Set your observer location to see the next 7 days of passes ≥ 10°. The values pass through the URL so the page stays shareable.

No JS? Fill the form by hand. The geolocation button needs JavaScript.